Погода в Смидине

Украина / Волынская область     51°17′39″N   24°25′58″E
темп.,
°C
ветер,
м/с
пор.,
м/с
влажн.,
%
обл.,
%
осадки,
мм/ч
давл.,
гПа
погр.,
м
16 июня, ср
ср1600:00+15ссз3587100 0.0 101792
03:00+14с339079 0.0 101742
06:00+13с349652 0.0 101791
09:00+18ссв458337 0.0 1018569
12:00+21ссв446711 0.3 10191009
15:00+22с55604 0.3 10181285
18:00+22ссв55637 0.0 10181229
21:00+16св35785 0.0 101989
17 июня, чт
чт1700:00+13ссв33835 0.0 102022
03:00+11св33900 0.0 102125
06:00+11св22910 0.0 102137
09:00+17св34742 0.0 1022351
12:00+22в23600 0.0 10221025
15:00+25вюв23534 0.0 10211549
18:00+25в245421 0.0 10211496
21:00+20св33792 0.0 102242
18 июня, пт
пт1800:00+17всв33880 0.0 102330
03:00+16вюв34923 0.0 102245
06:00+16вюв36945 0.0 1023119
09:00+21вюв57775 0.0 1023473
12:00+24вюв56625 0.0 10231078
15:00+26вюв56550 0.0 10221370
18:00+25вюв45570 0.0 10211226
21:00+21юв33755 0.0 102225
19 июня, сб
сб1900:00+18юв38920 0.0 1022141
03:00+17вюв37955 0.0 1022141
06:00+16вюв379754 0.0 1023159
09:00+21вюв58805 0.0 1023567
12:00+25юв676783 0.0 10221297
15:00+24вюв4672100 0.1 1021896
18:00+25вюв46650 0.1 1020818
21:00+21юв37810 0.1 1020132
20 июня, вс
вс2000:00+17юв47890 0.0 1021118
03:00+16вюв37954 0.0 1021138
06:00+16вюв37955 0.0 1020148
09:00+21вюв57785 0.0 1020568
12:00+24вюв576828 0.4 10191262
15:00+25вюв566616 1.6 10181280
18:00+25вюв567123 1.4 10171075
21:00+21вюв388982 2.2 1018195